Regional Weather Roundup
Issued by NWS

Home | Current Version | Previous Version | Graphics & Text | Print | Product List | Glossary On
Versions: 1 2 3 4 5 6 7 8 9 10 11 12 13 14 15 16 17 18 19 20 21 22 23 24 25 26 27 28 29 30 31 32 33 34 35 36 37 38 39 40 41 42 43 44 45 46 47 48 49 50
000
ASUS45 KABQ 282210
RWRNM
NEW MEXICO REGIONAL WEATHER ROUNDUP
NATIONAL WEATHER SERVICE ALBUQUERQUE NM
400 PM MDT TUE MAR 28 2017

NOTE: "FAIR" MEANS FEW OR NO CLOUDS BELOW 12,000 FEET AGL WITH NO
       SIGNIFICANT WEATHER OR OBSTRUCTIONS TO VISION.

      THIS PRODUCT IS RELEASED AS TWO VERSIONS.  ONE VERSION NEAR
      THE TOP OF THE HOUR CONTAINING PRELIMINARY DATA FROM ALBUQUERQUE
      AND OTHER STATIONS.  A FINAL VERSION WITH ADDITIONAL DATA IS
      ISSUED ABOUT 10 MINUTES AFTER THE HOUR.

NMZ501-503-504-510>518-282300-
NORTHWEST PLATEAU/NORTHCENTRAL MOUNTAINS

CITY           SKY/WX    TMP DP  RH WIND       PRES   REMARKS
FARMINGTON     FAIR      53  35  50 W16G24    29.77F
LOS ALAMOS     PTSUNNY   46  36  68 N9        29.80R
SANTA FE       FAIR      49  35  58 CALM      29.78R
TAOS             N/A     36  27  69 CALM      29.82R
ANGEL FIRE     PTSUNNY   40  35  83 W12       29.80S WCI  33

$$
NMZ402-403-502-505>509-282300-
WESTCENTRAL MOUNTAINS/SOUTHWEST MOUNTAINS

CITY           SKY/WX    TMP DP  RH WIND       PRES   REMARKS
GALLUP         CLOUDY    42  36  79 CALM      29.86F
GRANTS         PTSUNNY   47  32  54 NE14G20   29.83S
SILVER CITY    PTSUNNY   57  22  25 W21G33    29.83S

$$
NMZ407-409-411-412-282300-
SOUTHERN DESERTS

CITY           SKY/WX    TMP DP  RH WIND       PRES   REMARKS
DEMING         PTSUNNY   61  27  27 W18G33    29.80F
LAS CRUCES     DRIZZLE   54  30  39 W15G47    29.81S
HOLLOMAN AFB   FAIR      61  30  31 SW15      29.79F
ALAMOGORDO     PTSUNNY   59  30  33 SW15      29.77F
T OR C         CLOUDY    55  28  35 W21       29.77S

$$
NMZ519>523-282300-
CENTRAL VALLEYS/CENTRAL HIGHLANDS

CITY           SKY/WX    TMP DP  RH WIND       PRES   REMARKS
ALBUQUERQUE    CLOUDY    48  38  68 N13       29.81R
DOUBLE EAGLE   CLOUDY    43  36  75 N7        29.82S
MORIARTY ARPT  CLOUDY    39  37  92 SW9       29.85R WCI  33
CLINES CORNERS LGT RAIN  39  35  86 W10       29.82R WCI  32
BELEN          FAIR      56  28  34 N3        29.78F
SOCORRO        PTSUNNY   56  30  36 W10G18    29.78R

$$
NMZ524>526-539-540-282300-
SOUTHCENTRAL MOUNTAINS

CITY           SKY/WX    TMP DP  RH WIND       PRES   REMARKS
RUIDOSO        CLOUDY    52  21  30 SW24G31   29.80F

$$
NMZ527>531-282300-
NORTHEAST HIGHLANDS/NORTHEAST PLAINS

CITY           SKY/WX    TMP DP  RH WIND       PRES   REMARKS
LAS VEGAS      CLOUDY    47  29  49 SW16      29.77R
RATON          CLOUDY    52  35  52 N6        29.74F
CLAYTON        CLOUDY    47  45  93 NE18      29.77R

$$
NMZ532>537-282300-
EASTCENTRAL PLAINS

CITY           SKY/WX    TMP DP  RH WIND       PRES   REMARKS
TUCUMCARI      TSTM      53  49  86 N15       29.67S
CANNON AFB     FAIR      72  34  25 W14G21    29.65F
CLOVIS AIRPORT FAIR      73  36  25 SW10G20   29.65F

$$
NMZ028-029-538-282300-
SOUTHEAST PLAINS

CITY           SKY/WX    TMP DP  RH WIND       PRES   REMARKS
ROSWELL        FAIR      72  18  13 SW24G31     N/A
ARTESIA        FAIR      72  27  18 SW22G33   29.68R
CARLSBAD       FAIR      71  22  15 W32G39    29.63S
HOBBS          PTSUNNY   73  27  17 SW15      29.62F


$$



USA.gov is the U.S. government's official web portal to all federal, state and local government web resources and services.